CW1734 Weather Reports


Display with metric or nautical units.
time (UTC)temp
F
wind
direction
speed
MPH
gust
MPH
rain 1hr
in
rain 24hr
in
rain mn
in
humidity
%
barometer
mb
20260504185403 58 306 3.0 5.0 0.00 0.00 0.00 81 1013.0
20260504184903 58 311 3.0 5.0 0.00 0.00 0.00 82 1013.0
20260504184403 58 333 2.0 3.0 0.00 0.00 0.00 81 1013.0
20260504183903 59 328 3.0 5.0 0.00 0.00 0.00 81 1013.0
20260504182904 59 326 3.0 5.0 0.00 0.00 0.00 79 1012.9
20260504182404 60 14 2.0 5.0 0.00 0.00 0.00 79 1012.9
20260504181403 61 141 1.0 3.0 0.00 0.00 0.00 78 1012.9
20260504180903 61 183 1.0 3.0 0.00 0.00 0.00 76 1012.9
20260504175904 61 160 2.0 5.0 0.00 0.00 0.00 76 1012.7
20260504175403 61 106 2.0 3.0 0.00 0.00 0.00 76 1012.7
20260504174903 61 101 0.0 3.0 0.00 0.00 0.00 76 1012.7
20260504174403 61 147 2.0 7.0 0.00 0.00 0.00 76 1012.7
20260504173904 61 145 2.0 5.0 0.00 0.00 0.00 76 1012.8
20260504173403 61 106 2.0 5.0 0.00 0.00 0.00 76 1012.8
20260504172903 61 168 3.0 6.0 0.00 0.00 0.00 77 1012.8
20260504172403 61 167 4.0 6.0 0.00 0.00 0.00 76 1012.8
20260504171903 61 156 0.0 0.0 0.00 0.00 0.00 77 1012.8
20260504171404 61 118 0.0 0.0 0.00 0.00 0.00 78 1012.8
20260504170403 61 74 0.0 2.0 0.00 0.00 0.00 77 1012.7
20260504160404 62 73 4.0 6.0 0.00 0.00 0.00 72 1012.7
20260504150904 66 227 5.0 10.0 0.00 0.00 0.00 70 1012.7
20260504140904 67 190 2.0 7.0 0.00 0.00 0.00 68 1012.9
20260504140403 65 220 3.0 6.0 0.00 0.00 0.00 70 1013.0
20260504130404 64 308 2.0 3.0 0.00 0.00 0.00 66 1013.5
20260504110403 62 54 3.0 7.0 0.00 0.00 0.00 73 1013.5
20260504100404 58 339 1.0 5.0 0.00 0.00 0.00 79 1013.8
20260504081903 56 86 2.0 5.0 0.00 0.00 0.00 85 1013.5
20260504081404 55 101 2.0 5.0 0.00 0.00 0.00 85 1013.5
20260504080903 55 92 0.0 3.0 0.00 0.00 0.00 86 1013.5
20260504080403 55 95 2.0 5.0 0.00 0.00 0.00 86 1013.2
20260504070403 54 37 2.0 5.0 0.00 0.00 0.00 86 1012.8
20260504050403 52 300 3.0 5.0 0.00 0.00 0.00 89 1011.9
20260504045903 53 302 3.0 5.0 0.00 0.00 0.00 89 1011.9
20260504045404 53 293 2.0 5.0 0.00 0.00 0.00 89 1011.9
20260504044403 53 311 4.0 6.0 0.00 0.00 0.00 89 1012.0
20260504043403 53 283 3.0 5.0 0.00 0.00 0.00 90 1012.0
20260504042903 53 237 0.0 2.0 0.00 0.00 0.00 89 1011.9
20260504041903 53 272 1.0 3.0 0.00 0.00 0.00 89 1011.9
20260504041403 53 287 0.0 0.0 0.00 0.00 0.00 90 1011.9
20260504040903 53 284 0.0 0.0 0.00 0.00 0.00 89 1011.9
20260504040403 53 284 0.0 0.0 0.00 0.00 0.00 89 1011.9
20260504035903 53 285 2.0 3.0 0.00 0.00 0.00 89 1011.9
20260504035403 53 275 2.0 5.0 0.00 0.00 0.00 89 1011.9
20260504034903 53 274 1.0 3.0 0.00 0.00 0.00 89 1011.8
20260504034403 53 274 2.0 3.0 0.00 0.00 0.00 89 1011.8
20260504033903 53 281 2.0 5.0 0.00 0.00 0.00 89 1011.8
20260504033403 53 250 0.0 0.0 0.00 0.00 0.00 89 1011.8
20260504032904 53 267 0.0 0.0 0.00 0.00 0.00 89 1011.8
20260504031904 53 211 0.0 0.0 0.00 0.00 0.00 89 1011.7
20260504031404 53 210 0.0 2.0 0.00 0.00 0.00 89 1011.7
20260504030903 53 210 1.0 3.0 0.00 0.00 0.00 89 1011.8
20260504030403 53 201 1.0 3.0 0.00 0.00 0.00 89 1011.8
20260504025903 53 201 3.0 5.0 0.00 0.00 0.00 89 1011.8
20260504025404 53 233 2.0 3.0 0.00 0.00 0.00 89 1011.8
20260504024904 53 264 0.0 3.0 0.00 0.00 0.00 89 1011.8
20260504024404 53 251 1.0 3.0 0.00 0.00 0.00 89 1011.8
20260504023903 53 226 2.0 5.0 0.00 0.00 0.00 89 1011.8
20260504023403 53 226 4.0 8.0 0.00 0.00 0.00 89 1011.8
20260504022903 53 210 2.0 3.0 0.00 0.00 0.00 89 1011.8
20260504022404 53 214 0.0 3.0 0.00 0.00 0.00 89 1011.7
20260504021903 53 196 1.0 5.0 0.00 0.00 0.00 89 1011.7
20260504020904 53 239 2.0 3.0 0.00 0.00 0.00 89 1011.6
20260504020404 53 220 0.0 3.0 0.00 0.00 0.00 89 1011.7
20260504015903 53 277 1.0 3.0 0.00 0.00 0.00 89 1011.7
20260504015404 53 200 1.0 3.0 0.00 0.00 0.00 89 1011.7
20260504014903 53 228 1.0 6.0 0.00 0.00 0.00 89 1011.7
20260504014403 53 289 1.0 3.0 0.00 0.00 0.00 89 1011.7
20260504013904 53 267 0.0 3.0 0.00 0.00 0.00 89 1011.7
20260504012403 53 229 0.0 2.0 0.00 0.00 0.00 89 1011.6
20260504011904 53 293 0.0 2.0 0.00 0.00 0.00 89 1011.8
20260504010403 53 276 1.0 5.0 0.00 0.00 0.00 89 1011.8
20260504005903 53 259 0.0 3.0 0.00 0.00 0.00 89 1011.8
20260504004903 53 221 4.0 8.0 0.00 0.00 0.00 89 1011.8
20260504004404 53 218 0.0 2.0 0.00 0.00 0.00 89 1011.8
20260504003903 53 240 2.0 6.0 0.00 0.00 0.00 89 1011.7
20260504003403 53 245 2.0 5.0 0.00 0.00 0.00 89 1011.7
20260504002903 53 269 2.0 5.0 0.00 0.00 0.00 88 1011.7
20260504002403 53 204 2.0 5.0 0.00 0.00 0.00 88 1011.6
20260504001903 53 238 1.0 5.0 0.00 0.00 0.00 89 1011.6
20260504000904 53 235 2.0 5.0 0.00 0.00 0.00 88 1011.5
20260504000403 53 199 2.0 7.0 0.00 0.00 0.00 88 1011.5
20260503235904 53 217 1.0 5.0 0.00 0.00 0.00 88 1011.5
20260503235403 54 214 1.0 3.0 0.00 0.00 0.00 88 1011.7
20260503234903 54 238 1.0 3.0 0.00 0.00 0.00 88 1011.7
20260503234403 54 264 2.0 5.0 0.00 0.00 0.00 88 1011.7
20260503233903 54 205 2.0 8.0 0.00 0.00 0.00 88 1011.7
20260503233403 54 211 2.0 5.0 0.00 0.00 0.00 88 1011.7
20260503232903 54 213 0.0 0.0 0.00 0.00 0.00 88 1011.7
20260503232403 53 215 1.0 3.0 0.00 0.00 0.00 88 1011.7
20260503231903 53 232 2.0 5.0 0.00 0.00 0.00 88 1011.6
20260503231404 53 243 2.0 5.0 0.00 0.00 0.00 88 1011.6
20260503230903 53 273 0.0 3.0 0.00 0.00 0.00 88 1011.6
20260503230404 54 274 2.0 5.0 0.00 0.00 0.00 88 1011.6
20260503225903 53 265 0.0 2.0 0.00 0.00 0.00 89 1011.5
20260503225403 53 254 1.0 3.0 0.00 0.00 0.00 89 1011.5
20260503224903 53 254 2.0 5.0 0.00 0.00 0.00 89 1011.5
20260503224403 53 236 2.0 5.0 0.00 0.00 0.00 89 1011.4
20260503223903 53 250 0.0 0.0 0.00 0.00 0.00 89 1011.4
20260503222903 53 271 2.0 5.0 0.00 0.00 0.00 89 1011.1
20260503222403 53 214 1.0 2.0 0.00 0.00 0.00 89 1011.1
20260503221903 53 222 3.0 7.0 0.00 0.00 0.00 89 1011.1
20260503221403 53 238 3.0 6.0 0.00 0.00 0.00 89 1011.1
20260503220403 53 227 2.0 7.0 0.00 0.00 0.00 89 1011.1
20260503215903 53 220 3.0 8.0 0.00 0.00 0.00 89 1011.1
20260503215403 53 247 3.0 5.0 0.00 0.00 0.00 90 1011.1
20260503214904 53 243 2.0 7.0 0.00 0.00 0.00 90 1011.1
20260503214403 53 225 5.0 8.0 0.00 0.00 0.00 90 1011.1
20260503213903 53 222 4.0 6.0 0.00 0.00 0.00 90 1011.1
20260503213403 53 243 2.0 5.0 0.00 0.00 0.00 90 1011.1
20260503212903 53 228 1.0 5.0 0.00 0.00 0.00 90 1011.0
20260503212403 53 223 2.0 5.0 0.00 0.00 0.00 90 1011.0
20260503211903 53 230 1.0 3.0 0.00 0.00 0.00 90 1010.8
20260503211404 53 249 1.0 2.0 0.00 0.00 0.00 90 1010.8
20260503210904 53 263 1.0 5.0 0.00 0.00 0.00 90 1010.8
20260503210403 53 246 1.0 3.0 0.00 0.00 0.00 90 1010.8
20260503205903 54 248 2.0 3.0 0.00 0.00 0.00 90 1010.5
20260503205403 54 258 0.0 0.0 0.00 0.00 0.00 90 1010.5
20260503204403 54 258 0.0 0.0 0.00 0.00 0.00 90 1010.5
20260503203904 54 258 0.0 0.0 0.00 0.00 0.00 90 1010.5
20260503203404 54 258 0.0 2.0 0.00 0.00 0.00 90 1010.5
20260503202903 54 226 0.0 5.0 0.00 0.00 0.00 90 1010.2
20260503202403 54 238 1.0 3.0 0.00 0.00 0.00 90 1010.2
20260503201903 54 234 2.0 3.0 0.00 0.00 0.00 90 1010.2
20260503201403 54 230 2.0 5.0 0.00 0.00 0.00 90 1010.2
20260503200903 54 239 2.0 6.0 0.00 0.00 0.00 90 1010.2
20260503195904 54 233 1.0 3.0 0.00 0.00 0.00 90 1010.2
20260503195403 54 196 2.0 6.0 0.00 0.00 0.00 89 1010.2
20260503194904 54 205 3.0 6.0 0.00 0.00 0.00 89 1010.2
20260503194404 54 220 3.0 7.0 0.00 0.00 0.00 89 1009.9
20260503193403 54 205 2.0 7.0 0.00 0.00 0.00 89 1009.9
20260503192903 54 190 3.0 6.0 0.00 0.00 0.00 89 1009.9
20260503191904 54 191 5.0 7.0 0.00 0.00 0.00 88 1009.9
20260503185903 55 225 2.0 5.0 0.00 0.00 0.00 87 1009.6